Location: Go�ngahuizen
(53.0821°N, 5.8849°E)
Time: 23:47:05
(UTC+00:00)

Cosmos 2184 Rocket - Pass Details

Date: 09 April 2020
Orbit: 958 x 1003 km, 82.9° (Epoch: 23 May)

Event Time Altitude Azimuth Distance (km) Brightness Sun altitude
Rises 18:58:08 0° 348° (NNW) 3,714 7.5 -5.4°
Reaches altitude 10° 19:00:40 10° 347° (NNW) 2,755 6.9 -5.7°
Maximum altitude 19:06:58 77° 264° (W) 1,008 4.3 -6.6°
Drops below altitude 10° 19:13:10 10° 179° (S) 2,706 6.1 -7.4°
Sets 19:15:39 0° 178° (S) 3,643 6.7 -7.8°
